Вернуться в каталог

SL-8 DEB *

АктивенLEO
NORAD 3743·DEBRIS·🇷🇺 Russia

Запущен Mar 15, 1965 с Baikonur Cosmodrome

Loading…

Ближайшие Пролёты (ближайшие 24 часа)

TLE

СвежийSource: Space-Track

Эпоха: Sep 14, 2026, 03:51 UTC

1 03743U 65020ES  26257.16060604  .00000070  00000-0  13406-2 0  9998
2 03743  56.6627  38.6944 0261516 161.1760  12.2372 12.20734904585016

Отслеживайте SL-8 DEB * в реальном времени с AllMySat

Download on the App Store